Time,TemperatureF,DewpointF,PressureIn,WindDirection,WindDirectionDegrees,WindSpeedMPH,WindSpeedGustMPH,Humidity,HourlyPrecipIn,Conditions,Clouds,dailyrainin,SoftwareType,DateUTC
2013-06-09 00:02:00,51.0,49.0,30.12,North,5,10.0,17.0,92,0.00,,,0.00,,2013-06-09 07:02:00,
2013-06-09 00:12:00,51.0,49.0,30.12,North,5,10.0,17.0,92,0.00,,,0.00,,2013-06-09 07:12:00,
2013-06-09 00:22:00,51.0,49.0,30.12,NNE,26,14.0,21.0,92,0.00,,,0.00,,2013-06-09 07:22:00,
2013-06-09 00:32:00,50.0,48.0,30.11,North,6,15.0,19.0,92,0.00,,,0.00,,2013-06-09 07:32:00,
2013-06-09 00:42:00,50.0,48.0,30.11,North,6,15.0,19.0,92,0.00,,,0.00,,2013-06-09 07:42:00,
2013-06-09 00:52:00,50.0,48.0,30.12,North,6,14.0,17.0,93,0.00,,,0.00,,2013-06-09 07:52:00,
2013-06-09 01:02:00,49.0,47.0,30.12,NE,42,15.0,24.0,93,0.00,,,0.00,,2013-06-09 08:02:00,
2013-06-09 01:11:00,49.0,47.0,30.12,NE,42,15.0,24.0,93,0.00,,,0.00,,2013-06-09 08:11:00,
2013-06-09 01:22:00,49.0,47.0,30.12,North,11,15.0,19.0,93,0.00,,,0.00,,2013-06-09 08:22:00,
2013-06-09 01:32:00,49.0,47.0,30.12,North,2,17.0,23.0,93,0.00,,,0.00,,2013-06-09 08:32:00,
2013-06-09 01:42:00,49.0,47.0,30.12,North,2,17.0,23.0,93,0.00,,,0.00,,2013-06-09 08:42:00,
2013-06-09 01:53:00,49.0,47.0,30.12,North,360,16.0,23.0,93,0.00,,,0.00,,2013-06-09 08:53:00,
2013-06-09 02:02:00,49.0,47.0,30.11,North,11,16.0,21.0,93,0.00,,,0.00,,2013-06-09 09:02:00,
2013-06-09 02:12:00,49.0,47.0,30.11,North,11,16.0,21.0,93,0.00,,,0.00,,2013-06-09 09:12:00,
2013-06-09 02:22:00,49.0,47.0,30.11,North,6,12.0,21.0,94,0.00,,,0.00,,2013-06-09 09:22:00,
2013-06-09 02:33:00,49.0,47.0,30.11,North,2,14.0,19.0,94,0.00,,,0.00,,2013-06-09 09:33:00,
2013-06-09 02:43:00,49.0,47.0,30.11,North,2,14.0,19.0,94,0.00,,,0.00,,2013-06-09 09:43:00,
2013-06-09 02:52:00,49.0,47.0,30.12,North,9,13.0,22.0,94,0.00,,,0.00,,2013-06-09 09:52:00,
2013-06-09 03:03:00,49.0,47.0,30.12,NNE,15,11.0,17.0,94,0.00,,,0.00,,2013-06-09 10:03:00,
2013-06-09 03:12:00,49.0,47.0,30.12,NNE,15,11.0,17.0,94,0.00,,,0.00,,2013-06-09 10:12:00,
2013-06-09 03:22:00,49.0,47.0,30.12,North,4,10.0,17.0,93,0.00,,,0.00,,2013-06-09 10:22:00,
2013-06-09 03:32:00,49.0,47.0,30.11,North,352,7.0,17.0,93,0.00,,,0.00,,2013-06-09 10:32:00,
2013-06-09 03:42:00,49.0,47.0,30.11,North,352,7.0,17.0,93,0.00,,,0.00,,2013-06-09 10:42:00,
2013-06-09 03:52:00,48.0,46.0,30.11,North,360,7.0,13.0,93,0.00,,,0.00,,2013-06-09 10:52:00,
2013-06-09 04:02:00,48.0,46.0,30.11,North,5,8.0,11.0,93,0.00,,,0.00,,2013-06-09 11:02:00,
2013-06-09 04:12:00,48.0,46.0,30.11,North,5,8.0,11.0,93,0.00,,,0.00,,2013-06-09 11:12:00,
2013-06-09 04:22:00,48.0,46.0,30.11,North,7,5.0,9.0,93,0.00,,,0.00,,2013-06-09 11:22:00,
2013-06-09 04:32:00,47.0,45.0,30.10,North,358,5.0,12.0,93,0.00,,,0.00,,2013-06-09 11:32:00,
2013-06-09 04:42:00,47.0,45.0,30.10,North,358,5.0,12.0,93,0.00,,,0.00,,2013-06-09 11:42:00,
2013-06-09 04:52:00,48.0,46.0,30.10,North,355,5.0,9.0,94,0.00,,,0.00,,2013-06-09 11:52:00,
2013-06-09 05:02:00,48.0,46.0,30.11,North,357,7.0,12.0,94,0.00,,,0.00,,2013-06-09 12:02:00,
2013-06-09 05:12:00,48.0,46.0,30.11,North,357,7.0,12.0,94,0.00,,,0.00,,2013-06-09 12:12:00,
2013-06-09 05:22:00,48.0,46.0,30.11,North,11,9.0,14.0,94,0.00,,,0.00,,2013-06-09 12:22:00,
2013-06-09 05:32:00,49.0,47.0,30.11,NNE,12,9.0,16.0,94,0.00,,,0.00,,2013-06-09 12:32:00,
2013-06-09 05:42:00,49.0,47.0,30.11,NNE,12,9.0,16.0,94,0.00,,,0.00,,2013-06-09 12:42:00,
2013-06-09 05:52:00,50.0,48.0,30.11,NNE,12,9.0,17.0,93,0.00,,,0.00,,2013-06-09 12:52:00,
2013-06-09 06:02:00,49.0,47.0,30.11,NNE,14,9.0,17.0,93,0.00,,,0.00,,2013-06-09 13:02:00,
2013-06-09 06:12:00,49.0,47.0,30.11,NNE,14,9.0,17.0,93,0.00,,,0.00,,2013-06-09 13:12:00,
2013-06-09 06:22:00,49.0,47.0,30.11,North,11,9.0,12.0,93,0.00,,,0.00,,2013-06-09 13:22:00,
2013-06-09 06:32:00,50.0,48.0,30.11,NNE,29,8.0,12.0,93,0.00,,,0.00,,2013-06-09 13:32:00,
2013-06-09 06:42:00,50.0,48.0,30.11,NNE,29,8.0,12.0,93,0.00,,,0.00,,2013-06-09 13:42:00,
2013-06-09 06:52:00,49.0,47.0,30.11,NNE,30,6.0,11.0,92,0.00,,,0.00,,2013-06-09 13:52:00,
2013-06-09 07:02:00,49.0,47.0,30.11,North,9,6.0,9.0,92,0.00,,,0.00,,2013-06-09 14:02:00,
2013-06-09 07:12:00,49.0,47.0,30.11,North,9,6.0,9.0,92,0.00,,,0.00,,2013-06-09 14:12:00,
2013-06-09 07:22:00,49.0,47.0,30.11,NNE,23,4.0,8.0,93,0.00,,,0.00,,2013-06-09 14:22:00,
2013-06-09 07:32:00,50.0,48.0,30.12,NNE,26,7.0,11.0,94,0.00,,,0.00,,2013-06-09 14:32:00,
2013-06-09 07:42:00,50.0,48.0,30.12,NNE,26,7.0,11.0,94,0.00,,,0.00,,2013-06-09 14:42:00,
2013-06-09 07:52:00,52.0,50.0,30.12,North,4,6.0,12.0,93,0.00,,,0.00,,2013-06-09 14:52:00,
2013-06-09 08:02:00,52.0,50.0,30.12,North,9,7.0,9.0,92,0.00,,,0.00,,2013-06-09 15:02:00,
2013-06-09 08:12:00,52.0,50.0,30.12,North,9,7.0,9.0,92,0.00,,,0.00,,2013-06-09 15:12:00,
2013-06-09 08:22:00,52.0,50.0,30.12,North,4,7.0,12.0,92,0.00,,,0.00,,2013-06-09 15:22:00,
2013-06-09 08:33:00,51.0,48.0,30.12,North,6,12.0,15.0,91,0.00,,,0.00,,2013-06-09 15:33:00,
2013-06-09 08:43:00,51.0,48.0,30.12,North,6,12.0,15.0,91,0.00,,,0.00,,2013-06-09 15:43:00,
2013-06-09 08:53:00,51.0,48.0,30.12,North,358,9.0,14.0,91,0.00,,,0.00,,2013-06-09 15:53:00,
2013-06-09 09:03:00,51.0,48.0,30.12,North,358,11.0,15.0,91,0.00,,,0.00,,2013-06-09 16:03:00,
2013-06-09 09:13:00,51.0,48.0,30.12,North,358,11.0,15.0,91,0.00,,,0.00,,2013-06-09 16:13:00,
2013-06-09 09:23:00,52.0,49.0,30.12,North,7,16.0,21.0,89,0.00,,,0.00,,2013-06-09 16:23:00,
2013-06-09 09:33:00,52.0,49.0,30.12,NNE,17,16.0,25.0,89,0.00,,,0.00,,2013-06-09 16:33:00,
2013-06-09 09:42:00,52.0,49.0,30.12,NNE,17,16.0,25.0,89,0.00,,,0.00,,2013-06-09 16:42:00,
2013-06-09 09:53:00,52.0,49.0,30.13,North,7,15.0,21.0,88,0.00,,,0.00,,2013-06-09 16:53:00,
2013-06-09 10:02:00,52.0,49.0,30.12,North,11,13.0,21.0,88,0.00,,,0.00,,2013-06-09 17:02:00,
2013-06-09 10:12:00,52.0,49.0,30.12,North,11,13.0,21.0,88,0.00,,,0.00,,2013-06-09 17:12:00,
2013-06-09 10:22:00,53.0,50.0,30.13,NNE,13,14.0,19.0,88,0.00,,,0.00,,2013-06-09 17:22:00,
2013-06-09 10:32:00,53.0,50.0,30.12,North,9,14.0,17.0,88,0.00,,,0.00,,2013-06-09 17:32:00,
2013-06-09 10:42:00,53.0,50.0,30.12,North,9,14.0,17.0,88,0.00,,,0.00,,2013-06-09 17:42:00,
2013-06-09 10:52:00,53.0,50.0,30.12,North,2,13.0,18.0,89,0.00,,,0.00,,2013-06-09 17:52:00,
2013-06-09 11:02:00,53.0,50.0,30.13,NNE,13,14.0,19.0,89,0.00,,,0.00,,2013-06-09 18:02:00,
2013-06-09 11:12:00,53.0,50.0,30.13,NNE,13,14.0,19.0,89,0.00,,,0.00,,2013-06-09 18:12:00,
2013-06-09 11:21:00,53.0,50.0,30.12,North,6,11.0,16.0,88,0.00,,,0.00,,2013-06-09 18:21:00,
2013-06-09 11:32:00,55.0,52.0,30.13,NNE,15,12.0,18.0,88,0.00,,,0.00,,2013-06-09 18:32:00,
2013-06-09 11:42:00,55.0,52.0,30.13,NNE,15,12.0,18.0,88,0.00,,,0.00,,2013-06-09 18:42:00,
2013-06-09 11:52:00,54.0,51.0,30.13,NNE,22,14.0,19.0,88,0.00,,,0.00,,2013-06-09 18:52:00,
2013-06-09 12:02:00,55.0,51.0,30.13,NNE,21,15.0,21.0,87,0.00,,,0.00,,2013-06-09 19:02:00,
2013-06-09 12:12:00,55.0,51.0,30.13,NNE,21,15.0,21.0,87,0.00,,,0.00,,2013-06-09 19:12:00,
2013-06-09 12:22:00,55.0,51.0,30.13,North,4,14.0,21.0,87,0.00,,,0.00,,2013-06-09 19:22:00,
2013-06-09 12:32:00,56.0,52.0,30.14,North,9,11.0,19.0,85,0.00,,,0.00,,2013-06-09 19:32:00,
2013-06-09 12:42:00,56.0,52.0,30.14,North,9,11.0,19.0,85,0.00,,,0.00,,2013-06-09 19:42:00,
2013-06-09 12:52:00,56.0,51.0,30.13,NNE,14,12.0,21.0,84,0.00,,,0.00,,2013-06-09 19:52:00,
2013-06-09 13:02:00,56.0,51.0,30.13,North,11,12.0,21.0,84,0.00,,,0.00,,2013-06-09 20:02:00,
2013-06-09 13:12:00,56.0,51.0,30.13,North,11,12.0,21.0,84,0.00,,,0.00,,2013-06-09 20:12:00,
2013-06-09 13:22:00,57.0,52.0,30.13,NNE,25,14.0,22.0,84,0.00,,,0.00,,2013-06-09 20:22:00,
2013-06-09 13:32:00,57.0,52.0,30.13,NNE,29,16.0,21.0,83,0.00,,,0.00,,2013-06-09 20:32:00,
2013-06-09 13:42:00,57.0,52.0,30.13,NNE,29,16.0,21.0,83,0.00,,,0.00,,2013-06-09 20:42:00,
2013-06-09 13:52:00,56.0,51.0,30.13,North,6,14.0,18.0,83,0.00,,,0.00,,2013-06-09 20:52:00,
2013-06-09 14:02:00,56.0,52.0,30.13,NNE,12,12.0,18.0,85,0.00,,,0.00,,2013-06-09 21:02:00,
2013-06-09 14:12:00,56.0,52.0,30.13,NNE,12,12.0,18.0,85,0.00,,,0.00,,2013-06-09 21:12:00,
2013-06-09 14:22:00,57.0,53.0,30.12,North,11,13.0,18.0,85,0.00,,,0.00,,2013-06-09 21:22:00,
2013-06-09 14:33:00,56.0,51.0,30.12,North,6,13.0,19.0,84,0.00,,,0.00,,2013-06-09 21:33:00,
2013-06-09 14:42:00,56.0,51.0,30.12,North,6,13.0,19.0,84,0.00,,,0.00,,2013-06-09 21:42:00,
2013-06-09 14:53:00,57.0,52.0,30.11,North,4,15.0,22.0,84,0.00,,,0.00,,2013-06-09 21:53:00,
2013-06-09 15:02:00,58.0,53.0,30.11,NNE,17,13.0,21.0,83,0.00,,,0.00,,2013-06-09 22:02:00,
2013-06-09 15:12:00,58.0,53.0,30.11,NNE,17,13.0,21.0,83,0.00,,,0.00,,2013-06-09 22:12:00,
2013-06-09 15:22:00,58.0,53.0,30.11,NNE,28,15.0,22.0,83,0.00,,,0.00,,2013-06-09 22:22:00,
2013-06-09 15:32:00,58.0,53.0,30.11,North,6,13.0,21.0,82,0.00,,,0.00,,2013-06-09 22:32:00,
2013-06-09 15:42:00,58.0,53.0,30.11,North,6,13.0,21.0,82,0.00,,,0.00,,2013-06-09 22:42:00,
2013-06-09 15:52:00,58.0,53.0,30.11,North,6,16.0,22.0,82,0.00,,,0.00,,2013-06-09 22:52:00,
2013-06-09 16:02:00,57.0,52.0,30.11,North,3,14.0,21.0,83,0.00,,,0.00,,2013-06-09 23:02:00,
2013-06-09 16:12:00,57.0,52.0,30.11,North,3,14.0,21.0,83,0.00,,,0.00,,2013-06-09 23:12:00,
2013-06-09 16:22:00,57.0,52.0,30.10,NNE,13,15.0,21.0,84,0.00,,,0.00,,2013-06-09 23:22:00,
2013-06-09 16:32:00,56.0,51.0,30.10,North,11,14.0,21.0,84,0.00,,,0.00,,2013-06-09 23:32:00,
2013-06-09 16:42:00,56.0,51.0,30.10,North,11,14.0,21.0,84,0.00,,,0.00,,2013-06-09 23:42:00,
2013-06-09 16:52:00,56.0,52.0,30.10,North,4,15.0,17.0,85,0.00,,,0.00,,2013-06-09 23:52:00,
2013-06-09 17:01:00,56.0,52.0,30.10,North,10,14.0,21.0,85,0.00,,,0.00,,2013-06-10 00:01:00,
2013-06-09 17:12:00,56.0,52.0,30.10,North,10,14.0,21.0,85,0.00,,,0.00,,2013-06-10 00:12:00,
2013-06-09 17:22:00,56.0,52.0,30.10,NNE,17,16.0,21.0,85,0.00,,,0.00,,2013-06-10 00:22:00,
2013-06-09 17:32:00,56.0,52.0,30.09,North,4,15.0,22.0,86,0.00,,,0.00,,2013-06-10 00:32:00,
2013-06-09 17:42:00,56.0,52.0,30.09,North,4,15.0,22.0,86,0.00,,,0.00,,2013-06-10 00:42:00,
2013-06-09 17:52:00,56.0,52.0,30.09,North,8,16.0,24.0,85,0.00,,,0.00,,2013-06-10 00:52:00,
2013-06-09 18:02:00,55.0,51.0,30.08,North,358,16.0,22.0,86,0.00,,,0.00,,2013-06-10 01:02:00,
2013-06-09 18:11:00,55.0,51.0,30.08,North,358,16.0,22.0,86,0.00,,,0.00,,2013-06-10 01:11:00,
2013-06-09 18:22:00,55.0,51.0,30.08,NNE,12,18.0,24.0,85,0.00,,,0.00,,2013-06-10 01:22:00,
2013-06-09 18:32:00,54.0,50.0,30.08,NNE,14,15.0,22.0,85,0.00,,,0.00,,2013-06-10 01:32:00,
2013-06-09 18:42:00,54.0,50.0,30.08,NNE,14,15.0,22.0,85,0.00,,,0.00,,2013-06-10 01:42:00,
2013-06-09 18:52:00,53.0,49.0,30.07,North,4,18.0,23.0,85,0.00,,,0.00,,2013-06-10 01:52:00,
2013-06-09 19:02:00,53.0,49.0,30.07,NNW,348,18.0,25.0,85,0.00,,,0.00,,2013-06-10 02:02:00,
2013-06-09 19:12:00,53.0,49.0,30.07,NNW,348,18.0,25.0,85,0.00,,,0.00,,2013-06-10 02:12:00,
2013-06-09 19:22:00,53.0,49.0,30.07,NNW,348,18.0,25.0,85,0.00,,,0.00,,2013-06-10 02:22:00,
2013-06-09 19:32:00,53.0,49.0,30.07,NNE,17,18.0,24.0,85,0.00,,,0.00,,2013-06-10 02:32:00,
2013-06-09 19:42:00,53.0,49.0,30.07,NNE,17,18.0,24.0,85,0.00,,,0.00,,2013-06-10 02:42:00,
2013-06-09 19:52:00,52.0,48.0,30.07,North,4,17.0,22.0,86,0.00,,,0.00,,2013-06-10 02:52:00,
2013-06-09 20:02:00,52.0,48.0,30.06,North,4,17.0,24.0,85,0.00,,,0.00,,2013-06-10 03:02:00,
2013-06-09 20:12:00,52.0,48.0,30.06,North,4,17.0,24.0,85,0.00,,,0.00,,2013-06-10 03:12:00,
2013-06-09 20:22:00,52.0,48.0,30.06,North,4,19.0,23.0,85,0.00,,,0.00,,2013-06-10 03:22:00,
2013-06-09 20:32:00,51.0,47.0,30.06,North,356,19.0,24.0,86,0.00,,,0.00,,2013-06-10 03:32:00,
2013-06-09 20:43:00,51.0,47.0,30.06,North,356,19.0,24.0,86,0.00,,,0.00,,2013-06-10 03:43:00,
2013-06-09 20:53:00,51.0,47.0,30.06,North,1,16.0,22.0,86,0.00,,,0.00,,2013-06-10 03:53:00,
2013-06-09 21:03:00,50.0,47.0,30.06,North,4,14.0,21.0,88,0.00,,,0.00,,2013-06-10 04:03:00,
2013-06-09 21:12:00,50.0,47.0,30.06,North,4,14.0,21.0,88,0.00,,,0.00,,2013-06-10 04:12:00,
2013-06-09 21:23:00,50.0,47.0,30.06,North,2,13.0,18.0,88,0.00,,,0.00,,2013-06-10 04:23:00,
2013-06-09 21:33:00,50.0,47.0,30.06,North,6,14.0,22.0,89,0.00,,,0.00,,2013-06-10 04:33:00,
2013-06-09 21:42:00,50.0,47.0,30.06,North,6,14.0,22.0,89,0.00,,,0.00,,2013-06-10 04:42:00,
2013-06-09 21:52:00,50.0,47.0,30.06,North,354,15.0,24.0,89,0.00,,,0.00,,2013-06-10 04:52:00,
2013-06-09 22:02:00,50.0,47.0,30.06,North,7,16.0,23.0,89,0.00,,,0.00,,2013-06-10 05:02:00,
2013-06-09 22:12:00,50.0,47.0,30.06,North,7,16.0,23.0,89,0.00,,,0.00,,2013-06-10 05:12:00,
2013-06-09 22:22:00,50.0,47.0,30.07,North,356,14.0,21.0,90,0.00,,,0.00,,2013-06-10 05:22:00,
2013-06-09 22:32:00,49.0,46.0,30.07,North,354,13.0,17.0,90,0.00,,,0.00,,2013-06-10 05:32:00,
2013-06-09 22:42:00,49.0,46.0,30.07,North,354,13.0,17.0,90,0.00,,,0.00,,2013-06-10 05:42:00,
2013-06-09 22:52:00,49.0,46.0,30.08,North,11,14.0,17.0,90,0.00,,,0.00,,2013-06-10 05:52:00,
2013-06-09 23:02:00,49.0,46.0,30.07,North,6,13.0,18.0,91,0.00,,,0.00,,2013-06-10 06:02:00,
2013-06-09 23:12:00,49.0,46.0,30.07,North,6,13.0,18.0,91,0.00,,,0.00,,2013-06-10 06:12:00,
2013-06-09 23:22:00,49.0,46.0,30.07,North,360,15.0,22.0,91,0.00,,,0.00,,2013-06-10 06:22:00,
2013-06-09 23:32:00,49.0,46.0,30.07,North,2,14.0,17.0,91,0.00,,,0.00,,2013-06-10 06:32:00,
2013-06-09 23:42:00,49.0,46.0,30.07,North,2,14.0,17.0,91,0.00,,,0.00,,2013-06-10 06:42:00,
2013-06-09 23:52:00,49.0,46.0,30.07,North,6,13.0,17.0,91,0.00,,,0.00,,2013-06-10 06:52:00,